This is the latest recevied weather packets stored in our database for station/object VA2DG-13. If no packets are shown the sender has not sent any weather packets the latest 10 day(s).
| Time | Temp. | Humidity | Pressure | Rain* | Wind** | Luminosity | Snow |
|---|---|---|---|---|---|---|---|
| 1777506609 | 16.67° C | 57% | 1004.5 hPa | 0 mm | - | - | - |
| 1777503009 | 17.78° C | 53% | 1004.6 hPa | 0 mm | - | - | - |
| 1777502109 | 18.89° C | 48% | 1004.6 hPa | 0 mm | - | - | - |
| 1777501508 | 18.89° C | 44% | 1005 hPa | 0 mm | - | - | - |
| 1777499108 | 19.44° C | 42% | 1005.5 hPa | 0 mm | - | - | - |
| 1777497609 | 19.44° C | 41% | 1005.8 hPa | 0 mm | - | - | - |
| 1777495809 | 19.44° C | 42% | 1006.2 hPa | 0 mm | - | - | - |
| 1777490709 | 19.44° C | 40% | 1007.3 hPa | 0 mm | - | - | - |
| 1777490409 | 20° C | 41% | 1007.2 hPa | 0 mm | - | - | - |
| 1777484708 | 19.44° C | 43% | 1008.6 hPa | 0 mm | - | - | - |
| 1777483809 | 18.33° C | 44% | 1008.7 hPa | 0 mm | - | - | - |
| 1777478709 | 16.11° C | 43% | 1009.8 hPa | 0 mm | - | - | - |
| 1777476908 | 15.56° C | 43% | 1010.2 hPa | 0 mm | - | - | - |
| 1777472108 | 15.56° C | 42% | 1010.6 hPa | 0 mm | - | - | - |
| 1777471809 | 15.56° C | 43% | 1010.6 hPa | 0 mm | - | - | - |
| 1777470907 | 15° C | 43% | 1010.7 hPa | 0 mm | - | - | - |
| 1777467607 | 13.89° C | 50% | 1011.3 hPa | 0 mm | - | - | - |
| 1777462209 | 12.22° C | 45% | 1012 hPa | 0 mm | - | - | - |
| 1777460407 | 12.22° C | 45% | 1011.9 hPa | 0 mm | - | - | - |
| 1777458307 | 12.22° C | 45% | 1011.4 hPa | 0 mm | - | - | - |
| 1777457409 | 12.22° C | 46% | 1011.4 hPa | 0 mm | - | - | - |
| 1777456209 | 12.22° C | 46% | 1011.4 hPa | 0 mm | - | - | - |
| 1777455908 | 12.22° C | 47% | 1011.4 hPa | 0 mm | - | - | - |
| 1777455308 | 12.22° C | 47% | 1011.3 hPa | 0 mm | - | - | - |
| 1777453508 | 12.22° C | 46% | 1011 hPa | 0 mm | - | - | - |
* Rain latest hour (hover to see other rain measurements)
** Current wind speed in m/s (hover to see current wind gust speed)